Lucknow, India

6:37 AM IST on April 27, 2017 (GMT +0530)
Lucknow

Weather History for VILK - May, 2014

Change the Weather History Date:

Sunday, May 11, 2014

  Actual Average Record
Temperature  
Mean Temperature 92 °F -  
Max Temperature 108 °F 97 °F 120 °F (2003)
Min Temperature 75 °F 78 °F 73 °F (1998)
Cooling Degree Days 26    
Growing Degree Days 42 (Base 50)    
Moisture  
Dew Point 56 °F    
Average Humidity 26    
Maximum Humidity 51    
Minimum Humidity 9    
Precipitation  
Precipitation 0.00 in - - ()
Sea Level Pressure  
Sea Level Pressure 29.58 in    
Wind  
Wind Speed 4 mph ()    
Max Wind Speed 13 mph    
Max Gust Speed -    
Visibility 2.5 miles    
Events      
Averages and records for this station are not official NWS values.
T = Trace of Precipitation, MM = Missing Value Source: Averaged Metar Reports

Daily Weather History Graph

Daily Weather History Graph

Search for Another Location

Airport or City:

Trip Planner

Search our weather history database for the weather conditions in past years. The results will help you decide how hot, cold, wet, or windy it might be!

Date:

Astronomy

May. 11, 2014 Rise Set
Actual Time 5:21 AM IST 6:44 PM IST
Civil Twilight 4:56 AM IST 7:09 PM IST
Nautical Twilight 4:27 AM IST 7:39 PM IST
Astronomical Twilight 3:56 AM IST 8:10 PM IST
Moon 3:30 PM IST (5/11) 2:49 AM IST (5/11)
Length of Visible Light 14h 12m
Length of Day
13h 22m
Waxing Gibbous, 86% of the Moon is Illuminated
May 11
Waxing Gibbous
May 15
Full
May 21
Last Quarter
May 29
New
Jun 6
First Quarter

Hourly Weather History & Observations

Time (IST) Temp. Heat Index Dew Point Humidity Pressure Visibility Wind Dir Wind Speed Gust Speed Precip Events Conditions
12:00 AM 82.4 °F 82.0 °F 57.2 °F 42% 29.56 in 2.5 mi Calm Calm - N/A   Haze
1:00 AM 80.6 °F 81.1 °F 59.0 °F 48% 29.53 in 2.5 mi Calm Calm - N/A   Haze
2:00 AM 78.8 °F - 59.0 °F 51% 29.53 in 2.5 mi Calm Calm - N/A   Haze
2:30 AM 82 °F - 60 °F 36% 29.54 in 2 mi 2.3 mph - -   Haze
3:00 AM 82.4 °F 82.0 °F 57.2 °F 42% 29.53 in 2.5 mi Calm Calm - N/A   Haze
4:00 AM 82.4 °F 82.0 °F 57.2 °F 42% 29.56 in 2.5 mi Calm Calm - N/A   Haze
5:00 AM 80.6 °F 80.8 °F 57.2 °F 45% 29.59 in 2.5 mi NW 6.9 mph - N/A   Haze
5:30 AM 86 °F - 55 °F 25% 29.60 in 1 mi NW 6.9 mph - -   Haze
6:00 AM 87.8 °F 86.1 °F 55.4 °F 33% 29.56 in 1.9 mi NE 5.8 mph - N/A   Haze
6:30 AM 87.8 °F 86.1 °F 55.4 °F 33% 29.59 in 1.9 mi NW 5.8 mph - N/A   Haze
7:00 AM 91.4 °F 89.9 °F 57.2 °F 31% 29.59 in 1.9 mi NW 4.6 mph - N/A   Haze
7:30 AM 93.2 °F 91.9 °F 57.2 °F 30% 29.59 in 1.9 mi North 3.5 mph - N/A   Haze
8:00 AM 95.0 °F 93.7 °F 57.2 °F 28% 29.62 in 1.9 mi ENE 3.5 mph - N/A   Haze
8:30 AM 94 °F - 55 °F 18% 29.61 in 1 mi NNE 3.5 mph - -   Haze
8:30 AM 95.0 °F 93.0 °F 55.4 °F 26% 29.62 in 1.9 mi NNE 3.5 mph - N/A   Haze
9:00 AM 96.8 °F 95.1 °F 55.4 °F 25% 29.62 in 1.9 mi NW 11.5 mph - N/A   Haze
9:30 AM 95.0 °F 93.7 °F 57.2 °F 28% 29.62 in 2.5 mi Calm Calm - N/A   Haze
10:00 AM 98.6 °F 98.5 °F 59.0 °F 27% 29.65 in 2.5 mi WNW 5.8 mph - N/A   Haze
10:30 AM 100.4 °F 100.2 °F 59.0 °F 25% 29.62 in 2.8 mi NW 3.5 mph - N/A   Haze
11:30 AM 103 °F - 53 °F 11% 29.61 in 2 mi WSW 9.2 mph - -   Haze
11:30 AM 107.6 °F 108.2 °F 59.0 °F 20% 29.62 in 3.1 mi WSW 9.2 mph - N/A   Haze
12:30 PM 109.4 °F 107.9 °F 53.6 °F 16% 29.62 in 2.8 mi SW 5.8 mph - N/A   Partly Cloudy
1:30 PM 113.0 °F 111.1 °F 53.6 °F 14% 29.59 in 3.1 mi WSW 8.1 mph - N/A   Haze
2:00 PM 113.0 °F 111.1 °F 53.6 °F 14% 29.56 in 3.1 mi WSW 9.2 mph - N/A   Haze
2:30 PM 106 °F - 50 °F 9% 29.54 in 2 mi West 11.5 mph - -   Haze
2:30 PM 109.4 °F 107.9 °F 53.6 °F 16% 29.56 in 3.1 mi West 11.5 mph - N/A   Haze
3:00 PM 107.6 °F 106.1 °F 53.6 °F 17% 29.53 in 3.1 mi West 9.2 mph - N/A   Haze
3:30 PM 107.6 °F 106.8 °F 55.4 °F 18% 29.53 in 3.1 mi West 11.5 mph - N/A   Haze
4:00 PM 107.6 °F 106.8 °F 55.4 °F 18% 29.53 in 3.1 mi West 12.7 mph - N/A   Haze
4:30 PM 107.6 °F 106.8 °F 55.4 °F 18% 29.53 in 3.1 mi West 12.7 mph - N/A   Haze
5:00 PM 105.8 °F 104.9 °F 55.4 °F 19% 29.53 in 3.1 mi WNW 11.5 mph - N/A   Haze
5:30 PM 102 °F - 54 °F 12% 29.52 in 2 mi WNW 9.2 mph - -   Haze
5:30 PM 104.0 °F 102.9 °F 55.4 °F 20% 29.53 in 3.1 mi WNW 9.2 mph - N/A   Haze
6:00 PM 102.2 °F 100.9 °F 55.4 °F 21% 29.53 in 3.1 mi NW 6.9 mph - N/A   Haze
6:30 PM 100.4 °F 98.8 °F 55.4 °F 22% 29.53 in 3.1 mi WNW 6.9 mph - N/A   Haze
7:00 PM 100.4 °F 99.7 °F 57.2 °F 24% 29.56 in 3.1 mi WNW 6.9 mph - N/A   Haze
7:30 PM 96.8 °F 95.8 °F 57.2 °F 27% 29.56 in 3.1 mi NW 6.9 mph - N/A   Haze
8:00 PM 96.8 °F 95.8 °F 57.2 °F 27% 29.59 in 3.1 mi WNW 11.5 mph - N/A   Haze
8:30 PM 94 °F - 58 °F 21% 29.59 in 2 mi NW 5.8 mph - -   Haze
8:30 PM 95.0 °F 94.4 °F 59.0 °F 30% 29.59 in 3.1 mi NW 5.8 mph - N/A   Haze
10:00 PM 91.4 °F 90.7 °F 59.0 °F 34% 29.65 in 2.5 mi NW 5.8 mph - N/A   Haze
11:00 PM 87.8 °F 87.1 °F 59.0 °F 38% 29.65 in 2.5 mi NW 4.6 mph - N/A   Haze
11:30 PM 87 °F - 60 °F 30% 29.64 in 2 mi NW 4.6 mph - -   Haze